This is the latest recevied weather packets stored in our database for station/object EA1FLU-10. If no packets are shown the sender has not sent any weather packets the latest 10 day(s).
| Time | Temp. | Humidity | Pressure | Rain* | Wind** | Luminosity | Snow |
|---|---|---|---|---|---|---|---|
| 1777947345 | 15° C | 49% | 1018.9 hPa | - | - | - | - |
| 1777945546 | 15° C | 49% | 1019 hPa | - | - | - | - |
| 1777943745 | 15.56° C | 48% | 1019.2 hPa | - | - | - | - |
| 1777941945 | 15.56° C | 48% | 1019.4 hPa | - | - | - | - |
| 1777940145 | 16.11° C | 48% | 1019.5 hPa | - | - | - | - |
| 1777938345 | 16.67° C | 47% | 1019.6 hPa | - | - | - | - |
| 1777936545 | 17.22° C | 47% | 1019.5 hPa | - | - | - | - |
| 1777934745 | 17.22° C | 47% | 1019.5 hPa | - | - | - | - |
| 1777932945 | 17.78° C | 46% | 1019.7 hPa | - | - | - | - |
| 1777931146 | 18.33° C | 46% | 1019.7 hPa | - | - | - | - |
| 1777929345 | 18.33° C | 45% | 1019.5 hPa | - | - | - | - |
| 1777927545 | 18.89° C | 45% | 1019.5 hPa | - | - | - | - |
| 1777925745 | 19.44° C | 44% | 1019 hPa | - | - | - | - |
| 1777923945 | 20° C | 44% | 1018.6 hPa | - | - | - | - |
| 1777922146 | 20.56° C | 44% | 1018.3 hPa | - | - | - | - |
| 1777920345 | 20.56° C | 42% | 1017.8 hPa | - | - | - | - |
| 1777918545 | 21.11° C | 42% | 1017.5 hPa | - | - | - | - |
| 1777916746 | 21.67° C | 41% | 1017.1 hPa | - | - | - | - |
| 1777914946 | 22.22° C | 36% | 1016.9 hPa | - | - | - | - |
| 1777913156 | 22.78° C | 35% | 1016.9 hPa | - | - | - | - |
| 1777913149 | 22.78° C | 35% | 1016.9 hPa | - | - | - | - |
| 1777911346 | 23.33° C | 36% | 1016.7 hPa | - | - | - | - |
| 1777909545 | 23.89° C | 35% | 1016.8 hPa | - | - | - | - |
| 1777907745 | 24.44° C | 35% | 1016.7 hPa | - | - | - | - |
| 1777905945 | 24.44° C | 39% | 1016.6 hPa | - | - | - | - |
* Rain since midnight (hover to see other rain measurements)
** Current wind speed in m/s (hover to see current wind gust speed)